This is the latest recevied weather packets stored in our database for station/object IU2RPR-3. If no packets are shown the sender has not sent any weather packets the latest 10 day(s).
| Time | Temp. | Humidity | Pressure | Rain* | Wind** | Luminosity | Snow |
|---|---|---|---|---|---|---|---|
| 1787787462 | 22.78° C | 76% | 1016.4 hPa | - | - | - | - |
| 1787786253 | 22.78° C | 75% | 1016.4 hPa | - | - | - | - |
| 1787785062 | 23.33° C | 74% | 1016.5 hPa | - | - | - | - |
| 1787783845 | 23.33° C | 74% | 1016.5 hPa | - | - | - | - |
| 1787782635 | 22.78° C | 75% | 1016.5 hPa | - | - | - | - |
| 1787781431 | 23.33° C | 75% | 1016.5 hPa | - | - | - | - |
| 1787780226 | 23.33° C | 74% | 1016.5 hPa | - | - | - | - |
| 1787779023 | 23.33° C | 76% | 1016.3 hPa | - | - | - | - |
| 1787777823 | 23.89° C | 76% | 1016.4 hPa | - | - | - | - |
| 1787776617 | 23.89° C | 74% | 1016.2 hPa | - | - | - | - |
| 1787775445 | 23.89° C | 74% | 1016 hPa | - | - | - | - |
| 1787774216 | 24.44° C | 74% | 1016.1 hPa | - | - | - | - |
| 1787773003 | 25° C | 71% | 1015.9 hPa | - | - | - | - |
| 1787771801 | 25.56° C | 69% | 1015.6 hPa | - | - | - | - |
| 1787770599 | 25° C | 69% | 1015.6 hPa | - | - | - | - |
| 1787769393 | 25.56° C | 65% | 1015.3 hPa | - | - | - | - |
| 1787768194 | 26.11° C | 65% | 1015.4 hPa | - | - | - | - |
| 1787766986 | 26.11° C | 65% | 1015.4 hPa | - | - | - | - |
| 1787765782 | 26.67° C | 65% | 1015.2 hPa | - | - | - | - |
| 1787764579 | 27.22° C | 62% | 1014.8 hPa | - | - | - | - |
| 1787763371 | 27.78° C | 60% | 1014.8 hPa | - | - | - | - |
| 1787762951 | 27.78° C | 60% | 1014.8 hPa | - | - | - | - |
| 1787762478 | 28.33° C | 57% | 1015 hPa | - | - | - | - |
| 1787761276 | 27.78° C | 58% | 1014.9 hPa | - | - | - | - |
| 1787760043 | 27.22° C | 57% | 1014.7 hPa | - | - | - | - |
* Rain since midnight (hover to see other rain measurements)
** Current wind speed in m/s (hover to see current wind gust speed)